Location: Freistadt
(48.5112°N, 14.5013°E)
Time: 16:34:18
(UTC+02:00)

DUCHIFAT 1 - Visible Passes

Search period start: 27 March 2023 00:00
Search period end: 06 April 2023 00:00
Orbit: 570 x 585 km, 98.0° (Epoch: 26 March)

Date Brightness Start Highest point End Pass type
(mag) Time Alt. Az. Time Alt. Az. Time Alt. Az.
27 Mar ? 03:06:21 10° ENE 03:08:04 13° E 03:08:04 13° E visible
27 Mar ? 04:39:53 10° N 04:43:58 67° WNW 04:44:21 62° WSW visible
28 Mar ? 03:10:19 10° ENE 03:12:29 14° E 03:12:29 14° E visible
28 Mar ? 04:44:08 10° N 04:48:11 61° WNW 04:48:47 53° WSW visible
29 Mar ? 03:14:18 10° NE 03:16:48 16° E 03:16:54 16° E visible
29 Mar ? 04:48:23 10° N 04:52:23 55° WNW 04:53:11 46° WSW visible
30 Mar ? 03:18:20 10° NE 03:21:02 17° E 03:21:17 17° E visible
30 Mar ? 04:52:36 10° N 04:56:34 50° WNW 04:57:34 40° WSW visible
31 Mar ? 03:22:21 10° NE 03:25:15 19° E 03:25:39 18° E visible
31 Mar ? 04:56:49 10° N 05:00:44 45° WNW 05:01:56 34° WSW visible
01 Apr ? 03:26:22 10° NE 03:29:27 20° E 03:29:59 20° ESE visible
01 Apr ? 05:01:01 10° N 05:04:52 41° WNW 05:06:17 30° WSW visible
02 Apr ? 03:30:23 10° NE 03:33:37 22° E 03:34:19 21° ESE visible
02 Apr ? 05:05:11 10° N 05:08:59 38° WNW 05:10:36 26° WSW visible
03 Apr ? 03:34:24 10° NE 03:37:46 24° E 03:38:36 22° ESE visible
03 Apr ? 05:09:21 10° N 05:13:04 35° WNW 05:14:54 23° WSW visible
04 Apr ? 03:38:24 10° NE 03:41:53 26° E 03:42:53 24° ESE visible
04 Apr ? 05:13:30 10° N 05:17:08 32° WNW 05:19:10 20° WSW visible
05 Apr ? 03:42:24 10° NE 03:45:59 29° E 03:47:09 25° SE visible
05 Apr ? 05:17:38 10° N 05:21:11 29° WNW 05:23:26 18° WSW visible
